Location: ????????
(56.1167°N, 38.6333°E)
Time: 21:04:40
(UTC+00:00)

SKYMED 2 - Pass Details

Date: 18 November 2025
Orbit: 621 x 623 km, 97.9° (Epoch: 14 December)

Event Time Altitude Azimuth Distance (km) Brightness Sun altitude
Exits shadow 16:25:50 36° 346° (NNW) 992 4.7 -26.4°
Maximum altitude 16:27:14 53° 293° (WNW) 775 4.3 -26.6°
Drops below altitude 10° 16:31:27 10° 216° (SW) 1,992 6.5 -27.2°
Sets 16:33:40 0° 212° (SSW) 2,894 7.3 -27.5°
